Gadsden, AL

3:57 AM CDT on July 17, 2019 (GMT -0500)
Gadsden Municipal

Weather History for KGAD - May, 2019

Change the Weather History Date:

Saturday, May 4, 2019

  Actual Average Record
Temperature  
Mean Temperature 70 °F -  
Max Temperature 78 °F 75 °F 93 °F (1952)
Min Temperature 63 °F 52 °F 35 °F (2004)
Cooling Degree Days 6    
Growing Degree Days 20 (Base 50)    
Moisture  
Dew Point 69 °F    
Average Humidity 96    
Maximum Humidity 100    
Minimum Humidity 81    
Precipitation  
Precipitation 1.26 in - - ()
Sea Level Pressure  
Sea Level Pressure 29.84 in    
Wind  
Wind Speed 3 mph (ENE)    
Max Wind Speed 21 mph    
Max Gust Speed 25 mph    
Visibility 8 miles    
Events Rain , Thunderstorm    
Averages and records for this station are not official NWS values.
T = Trace of Precipitation, MM = Missing Value Source: NWS Daily Summary

Daily Weather History Graph

Daily Weather History Graph

Search for Another Location

Airport or City:

Astronomy

May. 04, 2019 Rise Set
Actual Time 5:52 AM CDT 7:30 PM CDT
Civil Twilight 5:25 AM CDT 7:57 PM CDT
Nautical Twilight 4:53 AM CDT 8:29 PM CDT
Astronomical Twilight 4:19 AM CDT 9:03 PM CDT
Moon 5:58 AM CDT (5/4) 7:22 PM CDT (5/4)
Length of Visible Light 14h 31m
Length of Day
13h 37m
Waning Crescent, 0% of the Moon is Illuminated
May 4
Waning Crescent
May 4
New
May 11
First Quarter
May 18
Full
May 26
Last Quarter

Hourly Weather History & Observations

Time (CDT) Temp. Dew Point Humidity Pressure Visibility Wind Dir Wind Speed Gust Speed Precip Events Conditions
12:56 AM 64.0 °F 64.0 °F 100% 29.94 in 10.0 mi Calm Calm - N/A   Clear
1:56 AM 64.0 °F - N/A% 29.92 in 10.0 mi Calm Calm - N/A   Clear
2:56 AM 63.0 °F 63.0 °F 100% 29.91 in 10.0 mi Calm Calm - N/A   Clear
3:56 AM 64.0 °F - N/A% 29.91 in 10.0 mi Calm Calm - N/A   Scattered Clouds
4:56 AM 64.0 °F - N/A% 29.90 in 10.0 mi Calm Calm - N/A   Scattered Clouds
5:56 AM 64.0 °F 64.0 °F 100% 29.89 in 10.0 mi Calm Calm - N/A Thunderstorm Partly Cloudy
6:10 AM 64.4 °F 64.4 °F 100% 29.89 in 10.0 mi Calm Calm - N/A   Partly Cloudy
6:56 AM 66.0 °F 66.0 °F 100% 29.89 in 10.0 mi Calm Calm - N/A   Partly Cloudy
7:28 AM 66.2 °F 66.2 °F 100% 29.89 in 10.0 mi Variable 3.5 mph - 0.00 in Rain , Thunderstorm Light Rain
7:56 AM 66.9 °F 66.9 °F 100% 29.94 in 9.0 mi West 20.7 mph 25.3 mph 0.04 in Rain , Thunderstorm Heavy Rain
8:00 AM 66.2 °F 66.2 °F 100% 29.93 in 5.0 mi NW 11.5 mph 25.3 mph 0.12 in Rain , Thunderstorm Heavy Thunderstorms and Rain
8:08 AM 64.4 °F 64.4 °F 100% 29.92 in 2.0 mi NW 4.6 mph - 0.13 in Rain , Thunderstorm Thunderstorms and Rain
8:13 AM 64.4 °F 64.4 °F 100% 29.93 in 9.0 mi WNW 4.6 mph - 0.13 in Rain , Thunderstorm Light Thunderstorms and Rain
8:39 AM 66.2 °F 66.2 °F 100% 29.92 in 10.0 mi NNW 3.5 mph - 0.13 in   Overcast
8:56 AM 66.9 °F 66.9 °F 100% 29.92 in 10.0 mi Calm Calm - 0.13 in   Overcast
9:10 AM 66.2 °F 66.2 °F 100% 29.92 in 10.0 mi Calm Calm - N/A   Overcast
9:56 AM 66.9 °F 66.9 °F 100% 29.94 in 10.0 mi Calm Calm - 0.01 in   Overcast
10:32 AM 69.8 °F 69.8 °F 100% 29.92 in 10.0 mi Calm Calm - N/A   Scattered Clouds
10:40 AM 71.6 °F 69.8 °F 94% 29.92 in 10.0 mi Calm Calm - N/A   Mostly Cloudy
10:56 AM 71.1 °F 69.1 °F 93% 29.92 in 10.0 mi Calm Calm - N/A   Overcast
11:18 AM 71.6 °F 69.8 °F 94% 29.91 in 10.0 mi SE 3.5 mph - N/A   Overcast
11:43 AM 71.6 °F 71.6 °F 100% 29.91 in 10.0 mi South 4.6 mph - 0.00 in   Overcast
11:56 AM 71.1 °F 70.0 °F 96% 29.91 in 10.0 mi Calm Calm - 0.00 in   Overcast
12:23 PM 73.4 °F 69.8 °F 88% 29.89 in 10.0 mi South 5.8 mph - N/A   Overcast
12:48 PM 73.4 °F 71.6 °F 94% 29.89 in 10.0 mi SSW 4.6 mph - N/A   Overcast
12:56 PM 73.9 °F 71.1 °F 91% 29.89 in 10.0 mi WSW 6.9 mph - N/A   Overcast
1:10 PM 75.2 °F 71.6 °F 89% 29.88 in 10.0 mi Variable 5.8 mph - N/A Thunderstorm Mostly Cloudy
1:20 PM 75.2 °F 71.6 °F 89% 29.88 in 10.0 mi Variable 3.5 mph - N/A Thunderstorm Mostly Cloudy
1:35 PM 73.4 °F 71.6 °F 94% 29.87 in 10.0 mi South 3.5 mph - 0.00 in Rain Rain
1:56 PM 75.0 °F 72.0 °F 90% 29.86 in 10.0 mi Variable 3.5 mph - 0.01 in   Mostly Cloudy
2:56 PM 78.1 °F 72.0 °F 81% 29.81 in 10.0 mi Calm Calm - N/A   Partly Cloudy
3:27 PM 77.0 °F 71.6 °F 83% 29.81 in 10.0 mi Calm Calm - N/A   Mostly Cloudy
3:48 PM 77.0 °F 71.6 °F 83% 29.79 in 10.0 mi ESE 3.5 mph - N/A   Mostly Cloudy
3:56 PM 77.0 °F 71.1 °F 82% 29.80 in 10.0 mi Calm Calm - N/A   Scattered Clouds
4:30 PM 75.2 °F 73.4 °F 94% 29.78 in 10.0 mi SE 4.6 mph - 0.00 in Rain , Thunderstorm Light Rain
4:45 PM 73.4 °F 73.4 °F 100% 29.79 in 10.0 mi SSE 5.8 mph - 0.00 in Rain Light Rain
4:53 PM 71.6 °F 71.6 °F 100% 29.79 in 7.0 mi SSE 6.9 mph - 0.01 in Rain Rain
4:56 PM 72.0 °F 72.0 °F 100% 29.79 in 6.0 mi SSE 6.9 mph - 0.02 in Rain Rain
5:15 PM 71.6 °F 71.6 °F 100% 29.79 in 10.0 mi Calm Calm - 0.03 in Rain , Thunderstorm Light Thunderstorms and Rain
5:54 PM 69.8 °F 69.8 °F 100% 29.79 in 10.0 mi ENE 6.9 mph - 0.03 in Rain Light Rain
5:56 PM 70.0 °F 70.0 °F 100% 29.79 in 10.0 mi ENE 5.8 mph - 0.03 in Rain Light Rain
6:18 PM 69.8 °F - N/A% 29.79 in 4.0 mi Calm Calm - 0.04 in Rain Rain
6:26 PM 68.0 °F - N/A% 29.80 in 2.5 mi WNW 4.6 mph - 0.22 in Rain Heavy Rain
6:33 PM 68.0 °F 68.0 °F 100% 29.80 in 1.0 mi Calm Calm - 0.33 in Rain Heavy Rain
6:41 PM 66.2 °F 66.2 °F 100% 29.80 in 1.5 mi NE 4.6 mph - 0.39 in Rain Heavy Rain
6:43 PM 66.2 °F 66.2 °F 100% 29.79 in 3.0 mi NE 6.9 mph - 0.39 in Rain Rain
6:56 PM 66.9 °F - N/A% 29.78 in 9.0 mi ENE 8.1 mph - 0.41 in Rain Light Rain
7:20 PM 66.2 °F - N/A% 29.75 in 2.0 mi East 10.4 mph - 0.15 in Rain Heavy Rain
7:28 PM 66.2 °F - N/A% 29.77 in 1.8 mi Variable 4.6 mph - 0.24 in Rain Rain
7:32 PM 66.2 °F - N/A% 29.77 in 3.0 mi Calm Calm - 0.24 in Rain Light Rain
7:49 PM 66.2 °F - N/A% 29.76 in 10.0 mi NNE 3.5 mph - 0.25 in Rain Light Rain
7:56 PM 66.9 °F - N/A% 29.76 in 10.0 mi NNE 4.6 mph - 0.25 in Rain Light Rain
8:11 PM 66.2 °F - N/A% 29.75 in 10.0 mi ENE 8.1 mph - 0.00 in   Overcast
8:56 PM 66.9 °F - N/A% 29.75 in 10.0 mi ESE 3.5 mph - 0.00 in   Overcast
9:56 PM 66.0 °F - N/A% 29.74 in 10.0 mi NE 3.5 mph - N/A   Mostly Cloudy
10:01 PM 66.2 °F - N/A% 29.74 in 10.0 mi North 3.5 mph - N/A   Overcast
10:40 PM 66.2 °F - N/A% 29.74 in 3.0 mi ENE 5.8 mph - 0.09 in Rain Rain
10:56 PM 66.0 °F - N/A% 29.73 in 5.0 mi NE 4.6 mph - 0.16 in Rain Rain
11:06 PM 66.2 °F - N/A% 29.73 in 10.0 mi Calm Calm - 0.00 in Rain Light Rain
11:25 PM 66.2 °F - N/A% 29.73 in 4.0 mi Variable 4.6 mph - 0.10 in Rain Heavy Rain
11:53 PM 66.2 °F - N/A% 29.72 in 10.0 mi NW 6.9 mph - 0.19 in Rain Light Rain
11:56 PM 66.0 °F - N/A% 29.73 in 9.0 mi WNW 5.8 mph - 0.20 in Rain Light Rain